Regional Weather Roundup
Issued by NWS

Home | Current Version | Previous Version | Graphics & Text | Print | Product List | Glossary On
Versions: 1 2 3 4 5 6 7 8 9 10 11 12 13 14 15 16 17 18 19 20 21 22 23 24 25 26 27 28 29 30 31 32 33 34 35 36 37 38 39 40 41 42 43 44 45 46 47 48 49 50
000
ASUS43 KMPX 141610
RWRMN
WEATHER ROUNDUP FOR MINNESOTA
NATIONAL WEATHER SERVICE TWIN CITIES/CHANHASSEN MN
1100 AM CDT MON JUL 14 2014


NOTE: "FAIR" INDICATES FEW OR NO CLOUDS BELOW 12,000 FEET WITH NO
SIGNIFICANT WEATHER AND/OR OBSTRUCTIONS TO VISIBILITY. N/A MEANS
CURRENT SKY AND/OR WEATHER CONDITIONS ARE NOT AVAILABLE.

MNZ060>063-068>070-141700-
   Twin Cities Metro

CITY           SKY/WX    TMP DP  RH WIND       PRES   REMARKS
TWIN CITIES    PTSUNNY   60  45  57 NW21G30   29.95R
ST PAUL        PTSUNNY   61  47  59 NW17G29   29.94R
CRYSTAL        PTSUNNY   62  45  53 NW16G28   29.95R
LAKEVILLE      PTSUNNY   55  52  88 NW13G20   29.95R
EDEN PRAIRIE   PTSUNNY   62  45  53 NW20G29   29.94R
SOUTH ST PAUL  PTSUNNY   62  43  49 NW21G28   29.94R
LAKE ELMO      PTSUNNY   59  46  63 NW12      29.94S
$$
MNZ001>005-007-008-013>017-022>024-027-028-141700-
   Northwest Minnesota

CITY           SKY/WX    TMP DP  RH WIND       PRES   REMARKS
BEMIDJI        RAIN      51  50  95 NW13      30.00R
HALLOCK        CLOUDY    55  52  88 N15G22    30.12R
ROSEAU         MOSUNNY   55  52  88 N17       30.06R
WARROAD        PTSUNNY   55  52  88 NW14G21   30.05R
THIEF RVR FALL CLOUDY    54  48  82 N18       30.08R
CROOKSTON      CLOUDY    54  48  82 N22G29    30.11R
FOSSTON        CLOUDY    50  48  93 NW13G20   30.06R
DETROIT LAKES  CLOUDY    52  48  87 NW25G31   30.07R
MOORHEAD       PTSUNNY   59  50  72 N18G26    30.10S
PARK RAPIDS    CLOUDY    52  48  86 NW20      30.01R
$$
MNZ006-009>011-018-025>026-141700-
   North Central Minnesota

CITY           SKY/WX    TMP DP  RH WIND       PRES   REMARKS
BAUDETTE       PTSUNNY   58  50  75 N23G31    29.99R
FLAG ISLAND    CLOUDY    57  50  77 N21G29    30.01R
INTL FALLS     CLOUDY    59  52  77 N13G24    29.92R
WASKISH        LGT RAIN  55  54  94 CALM      29.98R
BIG FORK       PTSUNNY   55  50  82 N10G17    29.92R
LONGVILLE      RAIN      52  52 100 NW9G17    29.95R
GRAND RAPIDS   CLOUDY    55  48  76 N10       29.91S
CRANE LAKE     CLOUDY    54  50  87 N5        29.91R
ORR            PTSUNNY   57  48  72 N3        29.87R
COOK           PTSUNNY   54  50  87 N7        29.89R
$$
MNZ012-019>021-037-141700-
   Northeast Minnesota

CITY           SKY/WX    TMP DP  RH WIND       PRES   REMARKS
DULUTH         CLOUDY    54  49  83 NW10G18   29.85R
ELY            LGT RAIN  52  48  87 N5        29.86R
HIBBING        LGT RAIN  52  49  89 N13       29.88R
EVELETH        LGT RAIN  52  48  87 NW6       29.88R
DULUTH HARBOR  PTSUNNY   57  52  82 W16       29.85S
TWO HARBORS    PTSUNNY   57  48  72 N6        29.82S
SILVER BAY     MOSUNNY   57  50  77 N5        29.82R
GRAND MARAIS     N/A     45  44  97 CALM      29.84R
G MARAIS ARPRT LGT RAIN  50  45  81 CALM      29.85R
$$
MNZ029>031-032-039>041-046>048-054>057-064-141700-
   West Central Minnesota

CITY           SKY/WX    TMP DP  RH WIND       PRES   REMARKS
FERGUS FALLS   CLOUDY    57  45  62 N22G32    30.07S
WHEATON        MOSUNNY   57  46  67 NW16G25   30.11F
MORRIS         SUNNY     57  46  67 N18G29    30.07S
ALEXANDRIA     CLOUDY    56  46  69 NW16G25   30.05S
WADENA         CLOUDY    54  46  76 NW16G25   30.02S
GLENWOOD       PTSUNNY   57  46  67 NW20      30.04S
APPLETON       PTSUNNY   61  45  55 NW18G26   30.08S
BENSON         CLOUDY    57  46  67 N18G28    30.07S
ORTONVILLE     MOSUNNY   59  45  58 N20G25    30.10S
MADISON        MOSUNNY   61  46  59 NW16G28   30.10R
WILLMAR        FAIR      59  45  58 NW21      30.06R
$$
MNZ033>034-036-042>043-049>051-058-059-141700-
   Central Minnesota

CITY           SKY/WX    TMP DP  RH WIND       PRES   REMARKS
ST CLOUD       PTSUNNY   60  44  55 NW18G29   29.99R
SAUK CENTRE    CLOUDY    56  46  69 NW17G23   30.03S
PAYNESVILLE    CLOUDY    55  45  68 W15G23    30.03R
AITKIN         CLOUDY    55  50  82 W7        29.92R HAZE
PINE RIVER     CLOUDY    54  46  76 NW15G21   30.00R
BRAINERD       CLOUDY    59  46  62 NW18G31   29.97R
STAPLES        CLOUDY    54  46  76 NW16      30.00S
LONG PRAIRIE   CLOUDY    54  45  71 W18       30.02S
LITTLE FALLS   CLOUDY    55  43  62 W18       29.99S
LITCHFIELD     CLOUDY    59  48  67 NW15G21   30.02R
BUFFALO        PTSUNNY   58  45  61 NW9G23    30.00R
MAPLE LAKE     CLOUDY    60  48  65 NW10G20   30.00S
$$
MNZ037-044-045-052-053-141700-
   East Central Minnesota

CITY           SKY/WX    TMP DP  RH WIND       PRES   REMARKS
PRINCETON      PTSUNNY   61  46  59 NW17G25   29.97R
MORA           PTSUNNY   55  46  71 NW14G21   29.95S
CAMBRIDGE      PTSUNNY   61  46  59 NW13G24   29.93R
RUSH CITY      LGT RAIN  56  49  77 NW9G23    29.93S
MOOSE LAKE     LGT RAIN  54  50  87 W5        29.87S
HINCKLEY       CLOUDY    55  50  82 W12G17    29.91S HAZE
CLOQUET        LGT RAIN  54  48  82 W16G22    29.87R
MCGREGOR       CLOUDY    52  46  82 N15G24    29.92R
$$
MNZ071>073-080-081-089-090-097-098-141700-
   Southwest Minnesota

CITY           SKY/WX    TMP DP  RH WIND       PRES   REMARKS
MONTEVIDEO     PTSUNNY   61  46  59 N21G26    30.08S
GRANITE FALLS  PTSUNNY   58  45  61 NW13G28   30.09R
CANBY          MOSUNNY   61  44  55 N17G26    30.12R
MARSHALL       PTSUNNY   61  43  51 NW22G31   30.07R
REDWOOD FALLS  CLOUDY    60  46  59 NW20G30   30.04R
OLIVIA         CLOUDY    59  45  58 NW17G28   30.04R
PIPESTONE      MOSUNNY   63  46  55 NW17G26   30.08S
WINDOM         MOSUNNY   64  46  52 NW23G31   30.04R
WORTHINGTON    PTSUNNY   63  46  55 N21G26    30.07S
JACKSON        MOSUNNY   64  45  48 NW18G32   30.04R
TRACY          PTSUNNY   62  47  59 NW22G29   30.07R
SLAYTON        MOSUNNY   62  43  49 N26G32    30.07S
$$
MNZ065>067-074>077-082>085-091>093-141700-
   South Central Minnesota

CITY           SKY/WX    TMP DP  RH WIND       PRES   REMARKS
MANKATO        PTSUNNY   63  45  51 NW25G31   29.98R
NEW ULM        SUNNY     63  46  55 NW22G32   30.00
ST JAMES       MOSUNNY   64  46  52 NW23      30.02S
FAIRMONT       PTSUNNY   64  45  48 NW17G29   30.01S
GLENCOE        MOSUNNY   60  43  53 NW21      29.99R
FARIBAULT      PTSUNNY   64  46  52 NW17G28   29.96R
OWATONNA       PTSUNNY   63  48  59 NW23      29.96R
WASECA         PTSUNNY   61  43  51 NW18G26   29.99R
ALBERT LEA     MOSUNNY   64  48  55 NW10G18   29.96S
$$
MNZ078>079-086>088-094>096-141700-
   Southeast Minnesota

CITY           SKY/WX    TMP DP  RH WIND       PRES   REMARKS
ROCHESTER      PTSUNNY   63  48  58 NW17G29   29.94S
RED WING       PTSUNNY   64  46  52 NW16G25   29.91R
STANTON        MOSUNNY   65  49  56 NW21      29.93R
DODGE CENTER   MOSUNNY   64  50  59 NW20      29.94R
WINONA         PTSUNNY   70  52  52 NW12      29.89S
AUSTIN         MOSUNNY   64  46  52 NW17G25   29.95R
PRESTON          N/A    N/A N/A N/A MISG        N/A
$$
ABBREVIATIONS USED IN REMARKS
   TC - TEMPERATURES IN CELSIUS
  WCI - WIND CHILL INDEX
   HX - HEAT INDEX
  VSB - VISIBILITY
$$


USA.gov is the U.S. government's official web portal to all federal, state and local government web resources and services.